This demonstration page uses our WeatherBlox Daily Observations layout. Learn more.

39.29038, -76.61219

Hourly Observations for December 14, 2019

Temp ( °F °C ) Dew Point ( °F °C ) Humidity (%) Winds ( mph kmh ) Pressure ( in mb ) Visibility ( mi km ) Precip ( " mm )
12:54 am 00:54 undefined 48 8.9 46 7.8 93 93 undefined N/A 29.72 1006 N/A 0.04 1.016
1:54 am 01:54 undefined 46 7.8 44 6.7 93 93 undefined N/A 29.67 1005 N/A 0.05 1.27
2:54 am 02:54 undefined 46 7.8 43 6.1 89 89 undefined N/A 29.63 1003 N/A 0 0
3:54 am 03:54 undefined 46 7.8 43 6.1 89 89 undefined N/A 29.6 1002 N/A 0 0
4:54 am 04:54 undefined 46 7.8 44 6.7 93 93 undefined N/A 29.56 1001 N/A 0 0
5:54 am 05:54 undefined 47 8.3 44 6.7 90 90 undefined N/A 29.54 1001 N/A 0 0
6:54 am 06:54 undefined 47 8.3 44 6.7 90 90 undefined N/A 29.49 999 N/A 0 0
7:54 am 07:54 undefined 47 8.3 45 7.2 93 93 undefined N/A 29.5 999 N/A 0 0
8:54 am 08:54 undefined 48 8.9 47 8.3 96 96 undefined N/A 29.47 998 N/A 0 0
9:54 am 09:54 undefined 49 9.4 47 8.3 93 93 undefined N/A 29.4 996 N/A 0 0
10:54 am 10:54 undefined 49 9.4 48 8.9 97 97 undefined N/A 29.38 995 N/A 0 0
11:54 am 11:54 undefined 50 10 48 8.9 93 93 undefined N/A 29.32 993 N/A 0.04 1.016
12:54 pm 12:54 undefined 49 9.4 45 7.2 86 86 undefined N/A 29.29 992 N/A 0.04 1.016
1:54 pm 13:54 undefined 50 10 46 7.8 86 86 undefined N/A 29.33 993 N/A 0.03 0.762
2:54 pm 14:54 undefined 50 10 45 7.2 83 83 undefined N/A 29.32 993 N/A 0 0
3:54 pm 15:54 undefined 50 10 45 7.2 83 83 undefined N/A 29.33 993 N/A 0 0
4:54 pm 16:54 undefined 49 9.4 44 6.7 83 83 undefined N/A 29.37 995 N/A 0 0
5:54 pm 17:54 undefined 49 9.4 39 3.9 69 69 undefined N/A 29.41 996 N/A 0 0
6:54 pm 18:54 undefined 48 8.9 35 1.7 61 61 undefined N/A 29.45 997 N/A 0 0
7:54 pm 19:54 undefined 47 8.3 33 0.6 59 59 undefined N/A 29.49 999 N/A 0 0
8:54 pm 20:54 undefined 46 7.8 32 0 58 58 undefined N/A 29.53 1000 N/A 0 0
9:54 pm 21:54 undefined 46 7.8 32 0 58 58 undefined N/A 29.57 1001 N/A 0 0
10:54 pm 22:54 undefined 46 7.8 32 0 58 58 undefined N/A 29.58 1002 N/A 0 0
11:54 pm 23:54 undefined 45 7.2 32 0 61 61 undefined N/A 29.61 1003 N/A 0 0

Powered by AerisWeather